EW9931 Weather Reports


time (UTC)temp
C
wind
direction
speed
KPH
gust
KPH
rain 1hr
cm
rain 24hr
cm
rain mn
cm
humidity
%
barometer
mb
20260905064522 12 144 0.0 0.0 0.00 0.00 0.00 28 1004.5
20260905063022 12 167 0.0 0.0 0.00 0.00 0.00 29 1004.4
20260905061524 12 179 0.0 0.0 0.00 0.00 0.00 28 1004.5
20260905060037 12 150 0.0 0.0 0.00 0.00 0.00 27 1004.5
20260905054520 12 126 0.0 0.0 0.00 0.00 0.00 27 1004.4
20260905053019 12 133 0.0 0.0 0.00 0.00 0.00 27 1004.6
20260905051524 12 152 0.0 0.0 0.00 0.00 0.00 27 1004.6
20260905050021 13 131 0.0 0.0 0.00 0.00 0.00 28 1005.2
20260905044521 13 147 0.0 0.0 0.00 0.00 0.00 26 1005.1
20260905043016 13 157 0.0 0.0 0.00 0.00 0.00 26 1004.9
20260905041515 13 152 0.0 0.0 0.00 0.00 0.00 27 1004.8
20260905040014 13 145 0.0 0.0 0.00 0.00 0.00 28 1005.1
20260905034516 13 124 0.0 0.0 0.00 0.00 0.00 30 1004.9
20260905033013 13 164 0.0 0.0 0.00 0.00 0.00 34 1004.9
20260905031517 13 174 0.0 0.0 0.00 0.00 0.00 35 1004.5
20260905030015 13 160 0.0 0.0 0.00 0.00 0.00 34 1004.6
20260905024514 13 150 0.0 0.0 0.00 0.00 0.00 37 1004.7
20260905023015 13 137 0.0 0.0 0.00 0.00 0.00 40 1004.6
20260905021517 13 154 0.0 0.0 0.00 0.00 0.00 46 1004.4
20260905020007 13 193 0.0 0.0 0.00 0.00 0.00 50 1004.9
20260905014508 13 209 1.6 0.0 0.00 0.00 0.00 51 1005.0
20260905013003 13 205 3.2 0.0 0.00 0.00 0.00 48 1005.1
20260905011500 14 203 3.2 0.0 0.00 0.00 0.00 46 1004.6
20260905010100 15 210 4.8 0.0 0.00 0.00 0.00 42 1004.7
20260905004559 15 193 6.4 0.0 0.00 0.00 0.00 39 1004.9
20260905003059 15 278 6.4 0.0 0.00 0.00 0.00 36 1004.3
20260905001608 16 212 6.4 0.0 0.00 0.00 0.00 33 1004.6
20260904234557 16 202 4.8 0.0 0.00 0.00 0.00 30 1003.9
20260904233106 17 136 4.8 0.0 0.00 0.00 0.00 31 1004.1
20260904231556 17 205 4.8 0.0 0.00 0.00 0.00 28 1004.2
20260904230055 17 230 4.8 0.0 0.00 0.00 0.00 28 1004.3
20260904224554 17 208 4.8 0.0 0.00 0.00 0.00 28 1004.2
20260904223057 18 205 3.2 0.0 0.00 0.00 0.00 27 1004.3
20260904221555 17 106 4.8 0.0 0.00 0.00 0.00 26 1004.3
20260904220106 17 116 4.8 0.0 0.00 0.00 0.00 23 1004.4
20260904214553 17 213 4.8 0.0 0.00 0.00 0.00 26 1004.5
20260904213052 17 202 4.8 0.0 0.00 0.00 0.00 24 1004.5
20260904211551 18 220 3.2 0.0 0.00 0.00 0.00 26 1004.3
20260904210056 18 232 3.2 0.0 0.00 0.00 0.00 23 1004.1
20260904204548 18 162 3.2 0.0 0.00 0.00 0.00 22 1004.1
20260904203049 18 210 3.2 0.0 0.00 0.00 0.00 21 1004.2
20260904201558 18 186 3.2 0.0 0.00 0.00 0.00 23 1004.0
20260904200045 18 236 1.6 0.0 0.00 0.00 0.00 20 1004.0
20260904194538 17 131 4.8 0.0 0.00 0.00 0.00 24 1004.1
20260904193035 17 172 3.2 0.0 0.00 0.00 0.00 24 1004.3
20260904191535 17 198 6.4 0.0 0.00 0.00 0.00 24 1004.3
20260904190026 17 220 6.4 0.0 0.00 0.00 0.00 23 1005.0
20260904184525 17 248 4.8 0.0 0.00 0.00 0.00 22 1004.3
20260904183021 16 202 4.8 0.0 0.00 0.00 0.00 21 1004.6
20260904181516 17 141 3.2 0.0 0.00 0.00 0.00 22 1004.6
20260904180014 16 175 3.2 0.0 0.00 0.00 0.00 21 1004.2
20260904174522 16 205 3.2 0.0 0.00 0.00 0.00 26 1004.1
20260904173009 16 131 1.6 0.0 0.00 0.00 0.00 26 1004.6
20260904171507 15 141 1.6 0.0 0.00 0.00 0.00 26 1004.5
20260904170005 15 209 1.6 0.0 0.00 0.00 0.00 28 1003.9
20260904164505 15 196 1.6 0.0 0.00 0.00 0.00 29 1003.7
20260904163010 15 210 0.0 0.0 0.00 0.00 0.00 29 1003.9
20260904161501 14 206 1.6 0.0 0.00 0.00 0.00 30 1003.8
20260904160100 14 193 1.6 0.0 0.00 0.00 0.00 30 1004.2
20260904154559 13 196 1.6 0.0 0.00 0.00 0.00 31 1004.2
20260904153105 13 162 0.0 0.0 0.00 0.00 0.00 31 1004.0
20260904151555 13 188 0.0 0.0 0.00 0.00 0.00 32 1004.2
20260904150055 12 172 0.0 0.0 0.00 0.00 0.00 32 1004.2
20260904144554 12 179 0.0 0.0 0.00 0.00 0.00 33 1004.1
20260904143050 12 154 0.0 0.0 0.00 0.00 0.00 33 1004.5
20260904141548 11 167 0.0 0.0 0.00 0.00 0.00 34 1004.2
20260904140048 11 148 0.0 0.0 0.00 0.00 0.00 35 1003.9
20260904134547 11 144 0.0 0.0 0.00 0.00 0.00 35 1003.9
20260904133046 11 160 0.0 0.0 0.00 0.00 0.00 36 1003.9
20260904131545 11 165 0.0 0.0 0.00 0.00 0.00 36 1003.8
20260904130045 11 161 0.0 0.0 0.00 0.00 0.00 36 1002.7
20260904124555 11 144 0.0 0.0 0.00 0.00 0.00 36 1002.5
20260904123043 11 143 0.0 0.0 0.00 0.00 0.00 37 1002.4
20260904121542 11 145 0.0 0.0 0.00 0.00 0.00 37 1002.3
20260904120046 11 176 0.0 0.0 0.00 0.00 0.00 37 1001.4
20260904114544 11 144 0.0 0.0 0.00 0.00 0.00 38 1001.3
20260904113047 11 200 1.6 0.0 0.00 0.00 0.00 38 1001.4
20260904111538 11 164 0.0 0.0 0.00 0.00 0.00 39 1001.8
20260904110038 10 148 0.0 0.0 0.00 0.00 0.00 38 1001.4
20260904104537 11 184 0.0 0.0 0.00 0.00 0.00 39 1001.4
20260904103040 11 151 0.0 0.0 0.00 0.00 0.00 40 1001.4
20260904101534 11 141 0.0 0.0 0.00 0.00 0.00 40 1001.1
20260904100033 11 202 0.0 0.0 0.00 0.00 0.00 42 1000.6
20260904094534 10 179 0.0 0.0 0.00 0.00 0.00 44 1000.6
20260904093031 11 128 0.0 0.0 0.00 0.00 0.00 45 1000.7
20260904091531 11 162 0.0 0.0 0.00 0.00 0.00 45 1000.5
20260904090029 11 178 1.6 0.0 0.00 0.00 0.00 45 1000.1
20260904084529 11 181 1.6 0.0 0.00 0.00 0.00 45 1000.2
20260904083029 11 151 3.2 0.0 0.00 0.00 0.00 44 1000.2
20260904081525 11 162 1.6 0.0 0.00 0.00 0.00 42 1000.4
20260904080022 11 208 0.0 0.0 0.00 0.00 0.00 40 1001.3
20260904074524 11 167 1.6 0.0 0.00 0.00 0.00 39 1001.2
20260904073014 12 199 1.6 0.0 0.00 0.00 0.00 39 1001.3
20260904071509 12 171 1.6 0.0 0.00 0.00 0.00 37 1001.4
20260904070005 12 145 0.0 0.0 0.00 0.00 0.00 34 1001.6